Weather History for Topeka Forbes, KS

Change the Weather History Date:

Wednesday, November 21, 2012

  Actual Average Record
Temperature  
Mean Temperature 54 °F -  
Max Temperature 73 °F 53 °F 73 °F (1990)
Min Temperature 34 °F 28 °F 10 °F (1964)
Degree Days  
Heating Degree Days 12    
Growing Degree Days 4 (Base 50)    
Moisture  
Dew Point 40 °F    
Average Humidity 58    
Maximum Humidity 93    
Minimum Humidity 30    
Precipitation  
Precipitation 0.00 in - - ()
Sea Level Pressure  
Sea Level Pressure 30.10 in    
Wind  
Wind Speed 11 mph (South)    
Max Wind Speed 22 mph    
Max Gust Speed 26 mph    
Visibility 10 miles    
Events      
Averages and records for this station are not official NWS values.
T = Trace of Precipitation, MM = Missing Value Source: NWS Daily Summary

Daily Weather History Graph

Daily Weather History Graph

Search for Another Location

Airport:

Trip Planner

Search our weather history database for the weather conditions in past years. The results will help you decide how hot, cold, wet, or windy it might be!

Date:

Astronomy

Nov. 21, 2012 Rise Set
Actual Time 7:12 AM CST 5:04 PM CST
Civil Twilight 6:43 AM CST 5:33 PM CST
Nautical Twilight 6:11 AM CST 6:05 PM CST
Astronomical Twilight 5:39 AM CST 6:37 PM CST
Moon 1:18 PM CST (11/21) 12:35 AM CST (11/21)
Length of Visible Light 10h 49m
Length of Day
9h 51m
First Quarter, 62% of the Moon is Illuminated
Nov 21
First Quarter
Nov 28
Full
Dec 6
Last Quarter
Dec 13
New
Dec 19
First Quarter

Hourly Weather History & Observations

Time (CST) Temp. Windchill Dew Point Humidity Pressure Visibility Wind Dir Wind Speed Gust Speed Precip Events Conditions
12:53 AM 34.0 °F 28.8 °F 30.9 °F 89% 30.20 in 10.0 mi South 5.8 mph - N/A   Clear
1:53 AM 36.0 °F 32.1 °F 32.0 °F 86% 30.19 in 10.0 mi South 4.6 mph - N/A   Clear
2:53 AM 41.0 °F 35.2 °F 37.9 °F 89% 30.19 in 10.0 mi South 9.2 mph - N/A   Clear
3:53 AM 39.9 °F 35.8 °F 37.9 °F 93% 30.19 in 10.0 mi South 5.8 mph - N/A   Clear
4:53 AM 42.1 °F 37.1 °F 39.0 °F 89% 30.18 in 10.0 mi South 8.1 mph - N/A   Clear
5:53 AM 45.0 °F 40.1 °F 39.9 °F 82% 30.19 in 8.0 mi South 9.2 mph - N/A   Clear
6:53 AM 46.0 °F 41.4 °F 41.0 °F 83% 30.19 in 10.0 mi South 9.2 mph - N/A   Clear
7:53 AM 46.0 °F 41.0 °F 42.1 °F 86% 30.19 in 6.0 mi South 10.4 mph - N/A   Clear
8:53 AM 52.0 °F - 43.0 °F 71% 30.20 in 10.0 mi SSW 15.0 mph - N/A   Clear
9:53 AM 57.0 °F - 43.0 °F 59% 30.20 in 10.0 mi SSW 15.0 mph - N/A   Clear
10:53 AM 64.0 °F - 41.0 °F 43% 30.18 in 10.0 mi SSW 17.3 mph - N/A   Clear
11:53 AM 69.1 °F - 42.1 °F 38% 30.14 in 10.0 mi SSW 17.3 mph - N/A   Clear
12:53 PM 72.0 °F - 39.0 °F 30% 30.11 in 10.0 mi South 21.9 mph 26.5 mph N/A   Clear
1:53 PM 73.0 °F - 42.1 °F 33% 30.07 in 10.0 mi SSW 21.9 mph 25.3 mph N/A   Clear
2:53 PM 73.0 °F - 42.1 °F 33% 30.04 in 10.0 mi South 17.3 mph 25.3 mph N/A   Clear
3:53 PM 72.0 °F - 42.1 °F 34% 30.02 in 10.0 mi South 18.4 mph - N/A   Clear
4:53 PM 66.9 °F - 41.0 °F 39% 30.01 in 10.0 mi SSE 11.5 mph - N/A   Clear
5:53 PM 62.1 °F - 41.0 °F 46% 30.00 in 10.0 mi SSE 12.7 mph - N/A   Clear
6:53 PM 61.0 °F - 39.9 °F 46% 29.99 in 10.0 mi South 16.1 mph - N/A   Clear
7:53 PM 60.1 °F - 39.9 °F 47% 29.99 in 10.0 mi South 13.8 mph - N/A   Clear
8:53 PM 57.9 °F - 39.0 °F 49% 29.99 in 10.0 mi SSE 11.5 mph - N/A   Clear
9:53 PM 59.0 °F - 37.9 °F 46% 29.97 in 10.0 mi South 12.7 mph - N/A   Clear
10:53 PM 57.9 °F - 37.9 °F 47% 29.94 in 10.0 mi South 12.7 mph - N/A   Clear
11:53 PM 60.1 °F - 39.0 °F 46% 29.92 in 10.0 mi South 18.4 mph 24.2 mph N/A   Clear